QPF
0.05 0.04 0.02 0.01 0.01 0.01 0.02 0.02 0.02 0.02 0.02 0.01 0.02 0.02 0.02 0.02 0.02 0.03 0.03 0.06 0.07 0.06 0.06 0.05 0.05 0.06 0.05 0.03 0.02 0.02 0.02 0.02 0.02 0.02 0.03 0.03 0.03 0.02 0.02 0.02 0.01 0.01 0.01
0.03 0.03 0.03 0.02 0.01 0.02 0.04 0.04 0.04 0.03 0.02 0.02 0.04 0.03 0.04 0.04 0.03 0.04 0.05 0.06 0.08 0.08 0.07 0.08 0.08 0.08 0.06 0.04 0.03 0.03 0.03 0.02 0.02 0.02 0.02 0.03 0.03 0.03 0.02 0.02 0.01 0.01 0.01
0.03 0.03 0.03 0.02 0.01 0.01 0.03 0.04 0.04 0.03 0.02 0.02 0.04 0.04 0.06 0.06 0.05 0.05 0.05 0.06 0.07 0.09 0.11 0.12 0.13 0.12 0.10 0.08 0.05 0.05 0.03 0.03 0.02 0.01 0.01 0.02 0.03 0.02 0.02 0.02 0.01 0.01 0.01
0.04 0.04 0.03 0.03 0.01 0.01 0.02 0.03 0.03 0.02 0.02 0.02 0.03 0.04 0.07 0.09 0.07 0.06 0.05 0.05 0.06 0.07 0.10 0.14 0.16 0.14 0.13 0.13 0.12 0.08 0.05 0.04 0.02 0.02 0.02 0.02 0.02 0.02 0.01 0.01 0.01 0.01 0.01
0.03 0.03 0.02 0.02 0.01 0.01 0.02 0.02 0.02 0.02 0.02 0.01 0.02 0.03 0.05 0.07 0.09 0.08 0.06 0.06 0.07 0.06 0.09 0.13 0.17 0.17 0.16 0.17 0.17 0.16 0.14 0.10 0.05 0.04 0.03 0.03 0.02 0.02 0.02 0.01 0.01 0.01 0.01
0.03 0.02 0.02 0.02 0.02 0.02 0.02 0.01 0.02 0.03 0.03 0.02 0.02 0.02 0.04 0.06 0.06 0.06 0.05 0.05 0.07 0.07 0.09 0.10 0.11 0.14 0.18 0.19 0.20 0.21 0.21 0.18 0.13 0.08 0.06 0.04 0.04 0.04 0.03 0.02 0.02 0.01 0.01
0.04 0.04 0.04 0.03 0.02 0.02 0.03 0.03 0.03 0.03 0.03 0.03 0.02 0.02 0.04 0.05 0.05 0.05 0.04 0.05 0.06 0.07 0.07 0.09 0.10 0.11 0.13 0.16 0.18 0.21 0.26 0.25 0.21 0.17 0.12 0.09 0.07 0.06 0.03 0.03 0.03 0.02 0.01
0.04 0.04 0.03 0.03 0.03 0.03 0.03 0.02 0.01 0.01 0.02 0.03 0.03 0.01 0.01 0.02 0.03 0.03 0.04 0.05 0.06 0.05 0.06 0.08 0.08 0.10 0.13 0.14 0.13 0.15 0.20 0.26 0.31 0.28 0.22 0.17 0.13 0.09 0.07 0.05 0.04 0.03 0.02
0.04 0.03 0.02 0.02 0.02 0.02 0.02 0.01 0.01 0.00 0.01 0.01 0.01 0.00 0.00 0.01 0.01 0.01 0.03 0.04 0.04 0.06 0.07 0.08 0.08 0.09 0.09 0.08 0.11 0.13 0.14 0.18 0.24 0.30 0.31 0.27 0.18 0.14 0.12 0.09 0.07 0.06 0.04
0.03 0.02 0.02 0.02 0.02 0.02 0.01 0.01 0.01 0.00 0.00 0.01 0.01 0.00 0.00 0.01 0.01 0.01 0.02 0.03 0.04 0.05 0.06 0.06 0.07 0.10 0.11 0.10 0.10 0.10 0.11 0.13 0.17 0.24 0.30 0.30 0.25 0.19 0.15 0.13 0.12 0.11 0.09
0.03 0.02 0.02 0.02 0.02 0.02 0.01 0.01 0.01 0.01 0.01 0.01 0.00 0.00 0.00 0.00 0.00 0.01 0.01 0.02 0.03 0.03 0.04 0.04 0.04 0.06 0.08 0.09 0.09 0.11 0.10 0.11 0.12 0.14 0.18 0.22 0.22 0.19 0.16 0.16 0.17 0.17 0.15
0.02 0.02 0.02 0.01 0.01 0.02 0.01 0.01 0.01 0.01 0.01 0.01 0.00 0.00 0.00 0.00 0.00 0.00 0.00 0.01 0.02 0.02 0.03 0.02 0.03 0.03 0.03 0.04 0.05 0.08 0.09 0.09 0.09 0.09 0.12 0.16 0.19 0.19 0.17 0.15 0.15 0.17 0.18
0.02 0.01 0.02 0.01 0.00 0.00 0.00 0.00 0.00 0.00 0.00 0.00 0.00 0.00 0.00 0.00 0.00 0.00 0.00 0.00 0.00 0.01 0.01 0.01 0.01 0.03 0.03 0.03 0.04 0.05 0.06 0.09 0.08 0.07 0.08 0.10 0.13 0.16 0.18 0.17 0.15 0.16 0.19
0.01 0.01 0.01 0.00 0.00 0.00 0.00 0.00 0.00 0.00 0.00 0.00 0.00 0.00 0.00 0.00 0.00 0.00 0.00 0.00 0.00 0.00 0.00 0.00 0.00 0.01 0.01 0.02 0.03 0.03 0.02 0.04 0.05 0.05 0.05 0.07 0.08 0.11 0.13 0.16 0.17 0.17 0.16
0.00 0.01 0.01 0.01 0.00 0.00 0.00 0.00 0.00 0.00 0.00 0.00 0.00 0.00 0.00 0.00 0.00 0.00 0.00 0.00 0.00 0.00 0.00 0.00 0.00 0.00 0.01 0.02 0.02 0.01 0.01 0.01 0.01 0.02 0.03 0.04 0.04 0.05 0.06 0.08 0.10 0.12 0.14
0.00 0.00 0.01 0.00 0.00 0.00 0.00 0.00 0.00 0.00 0.00 0.00 0.00 0.00 0.00 0.00 0.00 0.00 0.00 0.00 0.00 0.00 0.00 0.00 0.00 0.00 0.01 0.02 0.02 0.01 0.02 0.02 0.01 0.01 0.01 0.02 0.03 0.04 0.05 0.06 0.05 0.05 0.06
0.00 0.00 0.00 0.00 0.00 0.00 0.00 0.00 0.00 0.00 0.00 0.00 0.00 0.00 0.00 0.00 0.00 0.00 0.00 0.00 0.00 0.00 0.00 0.00 0.00 0.00 0.00 0.01 0.01 0.01 0.01 0.01 0.01 0.01 0.00 0.00 0.01 0.01 0.02 0.03 0.04 0.05 0.05
0.00 0.00 0.00 0.00 0.00 0.00 0.00 0.00 0.00 0.00 0.00 0.00 0.00 0.00 0.00 0.00 0.00 0.00 0.00 0.00 0.00 0.00 0.00 0.00 0.00 0.00 0.00 0.00 0.00 0.01 0.01 0.01 0.01 0.01 0.00 0.00 0.00 0.01 0.01 0.01 0.01 0.02 0.03
0.00 0.00 0.00 0.00 0.00 0.00 0.00 0.00 0.00 0.00 0.00 0.00 0.00 0.00 0.00 0.00 0.00 0.00 0.00 0.00 0.00 0.00 0.00 0.00 0.00 0.00 0.00 0.00 0.00 0.00 0.00 0.00 0.00 0.00 0.00 0.00 0.00 0.01 0.01 0.01 0.01 0.01 0.01
0.00 0.00 0.00 0.00 0.00 0.00 0.00 0.00 0.00 0.00 0.00 0.00 0.00 0.00 0.00 0.00 0.00 0.00 0.00 0.00 0.00 0.00 0.00 0.00 0.00 0.00 0.00 0.00 0.00 0.00 0.00 0.00 0.00 0.00 0.00 0.00 0.00 0.00 0.00 0.00 0.01 0.02 0.02
0.00 0.00 0.00 0.00 0.00 0.00 0.00 0.00 0.00 0.00 0.00 0.00 0.00 0.00 0.00 0.00 0.00 0.00 0.00 0.00 0.00 0.00 0.00 0.00 0.00 0.00 0.00 0.00 0.00 0.00 0.00 0.00 0.00 0.00 0.00 0.00 0.00 0.00 0.00 0.00 0.01 0.01 0.02
0.00 0.00 0.00 0.00 0.00 0.00 0.00 0.00 0.00 0.00 0.00 0.01 0.01 0.01 0.01 0.00 0.00 0.00 0.00 0.00 0.00 0.00 0.00 0.00 0.00 0.00 0.00 0.00 0.00 0.00 0.00 0.00 0.00 0.00 0.00 0.00 0.00 0.00 0.00 0.00 0.00 0.00 0.01
0.00 0.00 0.00 0.00 0.00 0.00 0.01 0.01 0.01 0.01 0.01 0.01 0.01 0.01 0.00 0.00 0.00 0.00 0.00 0.00 0.00 0.00 0.00 0.00 0.00 0.00 0.00 0.00 0.00 0.00 0.00 0.00 0.00 0.00 0.00 0.00 0.00 0.00 0.00 0.00 0.00 0.00 0.00
0.00 0.00 0.00 0.00 0.00 0.00 0.01 0.01 0.01 0.00 0.00 0.00 0.00 0.00 0.00 0.00 0.00 0.00 0.00 0.00 0.00 0.00 0.00 0.00 0.00 0.00 0.00 0.00 0.00 0.00 0.00 0.00 0.00 0.00 0.00 0.00 0.00 0.00 0.00 0.00 0.00 0.00 0.01
0.00 0.00 0.00 0.00 0.00 0.00 0.01 0.00 0.00 0.00 0.00 0.00 0.00 0.00 0.00 0.00 0.00 0.00 0.00 0.00 0.00 0.00 0.00 0.00 0.00 0.00 0.00 0.00 0.00 0.00 0.00 0.00 0.00 0.00 0.00 0.00 0.00 0.00 0.00 0.00 0.00 0.00 0.00
0.01 0.01 0.00 0.00 0.00 0.00 0.00 0.00 0.00 0.00 0.00 0.00 0.00 0.00 0.00 0.00 0.00 0.00 0.00 0.00 0.00 0.00 0.00 0.00 0.00 0.00 0.00 0.00 0.00 0.00 0.00 0.00 0.00 0.00 0.00 0.00 0.00 0.00 0.00 0.00 0.00 0.00 0.00
MSLP
1017.80 1017.95 1018.01 1018.03 1018.02 1018.03 1018.06 1018.11 1018.17 1018.23 1018.28 1018.29 1018.29 1018.27 1018.27 1018.29 1018.35 1018.46 1018.59 1018.74 1018.90 1019.05 1019.19 1019.33 1019.46 1019.60 1019.76 1019.94 1020.14 1020.35 1020.56 1020.76 1020.94 1021.11 1021.27 1021.44 1021.63 1021.84 1022.07 1022.32 1022.57 1022.81 1023.02
1017.99 1018.15 1018.24 1018.27 1018.28 1018.30 1018.33 1018.39 1018.46 1018.53 1018.59 1018.63 1018.65 1018.65 1018.64 1018.64 1018.66 1018.70 1018.76 1018.85 1018.95 1019.06 1019.18 1019.31 1019.45 1019.61 1019.78 1019.97 1020.17 1020.38 1020.58 1020.77 1020.95 1021.12 1021.30 1021.49 1021.69 1021.92 1022.16 1022.41 1022.65 1022.88 1023.08
1018.12 1018.31 1018.42 1018.48 1018.52 1018.56 1018.61 1018.68 1018.76 1018.85 1018.93 1018.99 1019.03 1019.05 1019.05 1019.03 1019.01 1018.99 1018.99 1019.00 1019.04 1019.09 1019.18 1019.28 1019.41 1019.57 1019.74 1019.94 1020.13 1020.33 1020.53 1020.71 1020.89 1021.08 1021.26 1021.46 1021.68 1021.91 1022.15 1022.39 1022.63 1022.86 1023.06
1018.21 1018.42 1018.56 1018.67 1018.75 1018.82 1018.90 1018.97 1019.06 1019.16 1019.25 1019.33 1019.39 1019.43 1019.43 1019.41 1019.37 1019.31 1019.25 1019.19 1019.15 1019.15 1019.18 1019.24 1019.35 1019.48 1019.65 1019.83 1020.02 1020.22 1020.40 1020.59 1020.77 1020.95 1021.15 1021.35 1021.56 1021.79 1022.02 1022.26 1022.49 1022.71 1022.92
1018.28 1018.50 1018.69 1018.84 1018.97 1019.08 1019.17 1019.26 1019.35 1019.44 1019.53 1019.62 1019.69 1019.75 1019.77 1019.75 1019.70 1019.62 1019.51 1019.40 1019.30 1019.23 1019.19 1019.20 1019.26 1019.37 1019.51 1019.68 1019.86 1020.04 1020.23 1020.41 1020.59 1020.77 1020.96 1021.16 1021.36 1021.58 1021.79 1022.01 1022.22 1022.43 1022.65
1018.34 1018.58 1018.81 1019.02 1019.19 1019.34 1019.45 1019.54 1019.61 1019.69 1019.76 1019.85 1019.93 1020.00 1020.04 1020.05 1020.00 1019.91 1019.78 1019.63 1019.47 1019.34 1019.24 1019.19 1019.19 1019.25 1019.36 1019.50 1019.66 1019.84 1020.02 1020.20 1020.39 1020.57 1020.75 1020.94 1021.13 1021.31 1021.50 1021.68 1021.87 1022.07 1022.28
1018.43 1018.69 1018.96 1019.21 1019.43 1019.60 1019.73 1019.81 1019.86 1019.91 1019.96 1020.03 1020.11 1020.20 1020.27 1020.30 1020.28 1020.20 1020.06 1019.89 1019.69 1019.50 1019.33 1019.22 1019.16 1019.17 1019.23 1019.34 1019.48 1019.65 1019.83 1020.01 1020.20 1020.39 1020.57 1020.74 1020.91 1021.06 1021.21 1021.36 1021.51 1021.68 1021.87
1018.56 1018.83 1019.14 1019.43 1019.69 1019.88 1020.01 1020.08 1020.11 1020.12 1020.15 1020.20 1020.28 1020.37 1020.47 1020.53 1020.55 1020.49 1020.37 1020.18 1019.96 1019.73 1019.51 1019.33 1019.21 1019.16 1019.17 1019.24 1019.35 1019.51 1019.68 1019.87 1020.06 1020.26 1020.44 1020.60 1020.75 1020.87 1020.98 1021.08 1021.19 1021.31 1021.48
1018.74 1019.03 1019.36 1019.68 1019.97 1020.18 1020.30 1020.36 1020.36 1020.34 1020.34 1020.37 1020.45 1020.55 1020.67 1020.78 1020.83 1020.81 1020.71 1020.53 1020.30 1020.03 1019.77 1019.54 1019.36 1019.25 1019.21 1019.23 1019.31 1019.44 1019.61 1019.80 1020.00 1020.19 1020.38 1020.54 1020.67 1020.77 1020.84 1020.89 1020.95 1021.02 1021.13
1018.95 1019.25 1019.60 1019.94 1020.24 1020.46 1020.58 1020.62 1020.61 1020.57 1020.54 1020.56 1020.64 1020.76 1020.90 1021.04 1021.13 1021.15 1021.07 1020.91 1020.68 1020.41 1020.11 1019.84 1019.61 1019.44 1019.35 1019.32 1019.36 1019.47 1019.61 1019.79 1019.99 1020.19 1020.37 1020.53 1020.66 1020.74 1020.78 1020.79 1020.79 1020.80 1020.85
1019.15 1019.46 1019.82 1020.17 1020.47 1020.69 1020.82 1020.85 1020.83 1020.77 1020.74 1020.76 1020.83 1020.97 1021.13 1021.30 1021.42 1021.47 1021.43 1021.30 1021.08 1020.81 1020.51 1020.20 1019.94 1019.72 1019.57 1019.50 1019.49 1019.55 1019.66 1019.81 1020.00 1020.19 1020.38 1020.54 1020.66 1020.73 1020.75 1020.73 1020.69 1020.64 1020.62
1019.30 1019.62 1019.98 1020.33 1020.63 1020.85 1020.97 1021.01 1020.99 1020.94 1020.91 1020.93 1021.01 1021.15 1021.34 1021.52 1021.68 1021.76 1021.75 1021.65 1021.46 1021.20 1020.90 1020.59 1020.30 1020.05 1019.85 1019.72 1019.66 1019.66 1019.73 1019.84 1019.99 1020.17 1020.34 1020.50 1020.62 1020.69 1020.70 1020.66 1020.59 1020.49 1020.41
1019.37 1019.69 1020.04 1020.38 1020.68 1020.90 1021.03 1021.07 1021.06 1021.03 1021.01 1021.04 1021.14 1021.29 1021.48 1021.68 1021.85 1021.96 1021.98 1021.91 1021.75 1021.52 1021.24 1020.94 1020.65 1020.38 1020.15 1019.97 1019.85 1019.79 1019.79 1019.84 1019.95 1020.09 1020.24 1020.39 1020.50 1020.57 1020.59 1020.54 1020.44 1020.32 1020.19
1019.34 1019.66 1020.00 1020.34 1020.62 1020.84 1020.98 1021.04 1021.05 1021.04 1021.04 1021.09 1021.19 1021.35 1021.55 1021.75 1021.92 1022.04 1022.09 1022.05 1021.93 1021.74 1021.50 1021.23 1020.95 1020.68 1020.43 1020.21 1020.04 1019.91 1019.84 1019.82 1019.86 1019.95 1020.06 1020.18 1020.29 1020.36 1020.38 1020.34 1020.24 1020.10 1019.93
1019.22 1019.54 1019.88 1020.20 1020.48 1020.70 1020.85 1020.92 1020.96 1020.97 1021.00 1021.07 1021.18 1021.33 1021.52 1021.71 1021.88 1022.01 1022.07 1022.06 1021.98 1021.83 1021.64 1021.42 1021.18 1020.92 1020.67 1020.43 1020.21 1020.02 1019.88 1019.79 1019.75 1019.77 1019.83 1019.91 1020.00 1020.06 1020.09 1020.05 1019.96 1019.82 1019.65
1019.04 1019.36 1019.70 1020.01 1020.29 1020.51 1020.67 1020.77 1020.83 1020.87 1020.92 1020.99 1021.11 1021.25 1021.43 1021.60 1021.75 1021.87 1021.94 1021.95 1021.91 1021.81 1021.68 1021.51 1021.32 1021.10 1020.86 1020.62 1020.37 1020.14 1019.93 1019.76 1019.65 1019.59 1019.59 1019.63 1019.68 1019.72 1019.74 1019.71 1019.63 1019.50 1019.33
1018.83 1019.17 1019.50 1019.82 1020.10 1020.32 1020.49 1020.61 1020.69 1020.75 1020.81 1020.90 1021.01 1021.14 1021.29 1021.43 1021.57 1021.67 1021.73 1021.76 1021.74 1021.69 1021.61 1021.51 1021.37 1021.19 1020.99 1020.76 1020.51 1020.25 1020.00 1019.77 1019.59 1019.47 1019.39 1019.37 1019.37 1019.38 1019.38 1019.35 1019.27 1019.15 1018.99
1018.64 1018.99 1019.33 1019.65 1019.93 1020.16 1020.34 1020.47 1020.56 1020.64 1020.71 1020.79 1020.89 1021.00 1021.12 1021.24 1021.35 1021.43 1021.48 1021.51 1021.51 1021.50 1021.47 1021.41 1021.33 1021.21 1021.05 1020.85 1020.62 1020.35 1020.08 1019.82 1019.58 1019.39 1019.25 1019.16 1019.10 1019.06 1019.03 1018.97 1018.89 1018.77 1018.62
1018.47 1018.83 1019.18 1019.50 1019.79 1020.02 1020.20 1020.34 1020.44 1020.52 1020.59 1020.67 1020.76 1020.85 1020.95 1021.03 1021.11 1021.17 1021.20 1021.23 1021.24 1021.24 1021.24 1021.23 1021.19 1021.13 1021.02 1020.86 1020.66 1020.42 1020.14 1019.86 1019.59 1019.35 1019.15 1018.99 1018.86 1018.76 1018.67 1018.58 1018.47 1018.35 1018.21
1018.29 1018.67 1019.03 1019.36 1019.65 1019.88 1020.06 1020.19 1020.29 1020.36 1020.43 1020.50 1020.58 1020.65 1020.73 1020.79 1020.85 1020.88 1020.90 1020.91 1020.92 1020.93 1020.94 1020.95 1020.95 1020.92 1020.86 1020.75 1020.59 1020.38 1020.13 1019.85 1019.57 1019.29 1019.04 1018.82 1018.62 1018.45 1018.29 1018.15 1018.00 1017.85 1017.70
1018.09 1018.48 1018.85 1019.18 1019.46 1019.69 1019.85 1019.98 1020.06 1020.12 1020.18 1020.24 1020.31 1020.37 1020.44 1020.49 1020.53 1020.55 1020.55 1020.55 1020.54 1020.54 1020.54 1020.56 1020.57 1020.57 1020.54 1020.47 1020.36 1020.19 1019.98 1019.72 1019.44 1019.15 1018.86 1018.58 1018.32 1018.07 1017.85 1017.63 1017.44 1017.25 1017.09
1017.82 1018.22 1018.59 1018.92 1019.19 1019.40 1019.55 1019.64 1019.71 1019.76 1019.80 1019.85 1019.91 1019.98 1020.04 1020.10 1020.13 1020.14 1020.13 1020.11 1020.08 1020.06 1020.05 1020.05 1020.06 1020.06 1020.05 1020.02 1019.94 1019.81 1019.64 1019.41 1019.15 1018.86 1018.54 1018.22 1017.91 1017.59 1017.30 1017.02 1016.77 1016.54 1016.35
1017.45 1017.86 1018.23 1018.55 1018.80 1018.99 1019.11 1019.18 1019.22 1019.25 1019.28 1019.32 1019.38 1019.45 1019.53 1019.59 1019.63 1019.65 1019.63 1019.59 1019.55 1019.49 1019.45 1019.42 1019.41 1019.40 1019.40 1019.38 1019.33 1019.24 1019.10 1018.91 1018.67 1018.38 1018.06 1017.72 1017.36 1017.00 1016.64 1016.30 1015.99 1015.73 1015.51
1016.98 1017.39 1017.76 1018.07 1018.30 1018.46 1018.55 1018.59 1018.60 1018.61 1018.63 1018.67 1018.73 1018.82 1018.90 1018.98 1019.04 1019.06 1019.04 1018.99 1018.93 1018.84 1018.77 1018.70 1018.66 1018.63 1018.61 1018.59 1018.55 1018.48 1018.38 1018.22 1018.00 1017.74 1017.42 1017.07 1016.69 1016.29 1015.89 1015.51 1015.16 1014.86 1014.61
1016.42 1016.84 1017.21 1017.51 1017.72 1017.85 1017.92 1017.93 1017.92 1017.91 1017.91 1017.95 1018.02 1018.11 1018.21 1018.31 1018.38 1018.41 1018.39 1018.34 1018.25 1018.14 1018.03 1017.93 1017.84 1017.79 1017.74 1017.71 1017.67 1017.62 1017.53 1017.39 1017.21 1016.96 1016.66 1016.31 1015.92 1015.51 1015.09 1014.69 1014.31 1013.97 1013.70
1015.82 1016.25 1016.62 1016.90 1017.10 1017.22 1017.26 1017.26 1017.23 1017.20 1017.20 1017.23 1017.31 1017.40 1017.51 1017.62 1017.69 1017.73 1017.71 1017.65 1017.55 1017.41 1017.27 1017.14 1017.02 1016.93 1016.87 1016.81 1016.77 1016.71 1016.63 1016.51 1016.34 1016.11 1015.83 1015.50 1015.12 1014.71 1014.29 1013.87 1013.48 1013.13 1012.83
Thickness
5727 5727 5727 5726 5726 5726 5726 5725 5725 5725 5725 5725 5726 5726 5726 5726 5726 5725 5726 5725 5724 5723 5722 5721 5721 5720 5719 5718 5717 5716 5716 5715 5714 5713 5712 5711 5711 5710 5709 5708 5708 5707 5706
5725 5724 5724 5723 5724 5723 5723 5722 5722 5722 5722 5722 5723 5723 5723 5723 5723 5722 5722 5722 5722 5721 5720 5719 5718 5718 5717 5716 5715 5715 5714 5713 5712 5712 5711 5710 5709 5709 5708 5707 5707 5706 5705
5722 5721 5720 5721 5720 5720 5720 5719 5719 5718 5719 5719 5719 5720 5720 5719 5719 5719 5719 5719 5718 5718 5718 5717 5717 5716 5715 5714 5714 5713 5712 5711 5710 5710 5709 5709 5708 5708 5707 5706 5705 5705 5704
5719 5718 5718 5717 5717 5717 5717 5716 5715 5714 5714 5714 5715 5715 5716 5716 5716 5715 5716 5716 5715 5715 5715 5715 5714 5714 5713 5713 5712 5711 5710 5709 5709 5708 5708 5707 5707 5706 5706 5705 5704 5704 5703
5716 5716 5715 5714 5715 5714 5714 5713 5712 5711 5710 5710 5711 5711 5711 5712 5712 5712 5712 5712 5712 5712 5712 5712 5712 5712 5711 5710 5710 5709 5708 5707 5707 5707 5706 5705 5705 5705 5704 5704 5703 5703 5702
5712 5712 5711 5712 5712 5711 5710 5710 5708 5708 5707 5707 5708 5707 5707 5707 5708 5708 5709 5709 5709 5709 5709 5708 5708 5708 5708 5708 5707 5706 5706 5705 5705 5705 5704 5704 5704 5703 5703 5702 5702 5702 5701
5709 5709 5709 5709 5709 5708 5708 5707 5706 5704 5703 5703 5702 5700 5701 5703 5704 5704 5705 5705 5705 5705 5705 5705 5705 5705 5705 5705 5704 5704 5703 5703 5703 5703 5703 5702 5702 5702 5701 5701 5700 5700 5700
5706 5707 5706 5706 5705 5705 5704 5704 5704 5701 5700 5700 5698 5695 5692 5694 5697 5699 5700 5700 5701 5701 5701 5701 5701 5701 5701 5701 5701 5701 5701 5701 5700 5701 5700 5700 5700 5700 5699 5699 5699 5699 5698
5704 5704 5703 5703 5703 5702 5701 5701 5701 5700 5696 5695 5696 5694 5689 5687 5689 5692 5694 5695 5696 5697 5697 5697 5697 5697 5697 5697 5698 5698 5698 5698 5698 5698 5698 5698 5697 5697 5697 5697 5697 5696 5696
5701 5701 5701 5700 5700 5699 5699 5699 5698 5697 5696 5693 5693 5693 5692 5691 5687 5685 5688 5689 5691 5691 5692 5693 5693 5693 5693 5694 5694 5694 5694 5695 5695 5695 5695 5694 5694 5694 5694 5694 5694 5694 5694
5698 5698 5698 5698 5697 5696 5696 5696 5695 5695 5694 5692 5691 5689 5688 5687 5686 5684 5680 5682 5684 5686 5687 5688 5688 5689 5689 5689 5689 5690 5690 5690 5691 5691 5691 5691 5691 5691 5691 5692 5692 5692 5692
5696 5696 5696 5696 5695 5694 5693 5693 5692 5692 5691 5690 5689 5688 5687 5685 5683 5681 5678 5676 5677 5679 5682 5683 5683 5684 5684 5685 5685 5685 5686 5686 5686 5686 5687 5687 5687 5687 5688 5688 5688 5689 5689
5694 5695 5695 5694 5693 5692 5691 5691 5690 5689 5689 5688 5687 5685 5685 5684 5682 5680 5677 5674 5673 5674 5676 5678 5678 5679 5680 5680 5680 5680 5681 5681 5681 5681 5682 5682 5683 5683 5683 5684 5684 5685 5686
5694 5694 5693 5692 5691 5691 5690 5688 5687 5686 5686 5685 5684 5683 5682 5681 5680 5679 5677 5673 5669 5668 5670 5671 5673 5674 5675 5675 5676 5676 5676 5676 5676 5677 5677 5677 5678 5678 5679 5680 5680 5681 5681
5694 5692 5691 5690 5689 5688 5687 5686 5685 5684 5683 5682 5681 5680 5679 5678 5677 5677 5675 5673 5669 5664 5664 5665 5668 5670 5670 5671 5671 5671 5671 5672 5671 5672 5672 5673 5673 5674 5674 5675 5675 5676 5677
5693 5691 5690 5689 5687 5686 5685 5684 5683 5682 5681 5680 5678 5677 5676 5675 5674 5673 5672 5670 5668 5665 5661 5662 5663 5664 5665 5666 5666 5666 5667 5667 5667 5667 5667 5668 5668 5669 5669 5670 5671 5671 5672
5692 5691 5689 5688 5686 5685 5683 5682 5681 5680 5679 5677 5676 5675 5673 5672 5671 5670 5668 5667 5665 5663 5660 5659 5659 5660 5660 5661 5661 5661 5662 5662 5662 5663 5663 5663 5664 5664 5665 5665 5666 5667 5668
5691 5690 5689 5687 5685 5684 5682 5681 5680 5678 5677 5675 5674 5672 5671 5670 5668 5667 5665 5664 5662 5660 5658 5656 5656 5656 5656 5656 5656 5656 5657 5657 5657 5658 5659 5659 5659 5660 5660 5661 5661 5662 5663
5691 5689 5688 5686 5685 5683 5681 5680 5679 5677 5675 5674 5672 5671 5669 5668 5666 5664 5663 5661 5659 5658 5655 5653 5652 5651 5651 5651 5651 5652 5652 5652 5653 5654 5654 5655 5655 5655 5655 5656 5657 5657 5658
5690 5688 5687 5686 5684 5682 5681 5679 5677 5675 5674 5672 5671 5669 5668 5666 5665 5663 5661 5658 5656 5654 5652 5650 5648 5647 5647 5647 5646 5646 5647 5648 5648 5650 5650 5650 5650 5650 5651 5651 5652 5653 5653
5690 5688 5686 5684 5683 5681 5680 5678 5676 5674 5672 5670 5669 5668 5666 5665 5663 5661 5659 5657 5654 5651 5649 5647 5645 5644 5644 5643 5642 5642 5642 5642 5643 5644 5645 5645 5645 5645 5646 5647 5647 5648 5648
5688 5686 5684 5683 5681 5680 5679 5677 5675 5673 5670 5668 5667 5666 5664 5663 5662 5660 5658 5656 5653 5650 5647 5644 5643 5641 5641 5640 5639 5638 5637 5636 5637 5639 5638 5640 5640 5641 5641 5642 5643 5643 5643
5686 5684 5682 5681 5679 5678 5677 5675 5673 5671 5668 5666 5665 5663 5662 5661 5659 5658 5656 5654 5652 5650 5647 5644 5642 5641 5640 5639 5636 5635 5633 5631 5632 5634 5631 5635 5636 5636 5638 5638 5639 5639 5638
5685 5683 5681 5679 5677 5676 5675 5673 5671 5668 5666 5664 5662 5660 5659 5658 5656 5654 5652 5650 5649 5647 5645 5643 5641 5640 5639 5637 5633 5631 5630 5628 5628 5628 5626 5627 5631 5631 5633 5633 5634 5634 5633
5683 5681 5679 5677 5675 5675 5673 5671 5669 5665 5663 5662 5660 5658 5656 5655 5654 5651 5648 5647 5646 5645 5644 5641 5639 5638 5636 5633 5629 5626 5625 5623 5625 5626 5623 5621 5625 5626 5627 5628 5628 5628 5627
5683 5680 5678 5676 5674 5673 5672 5669 5666 5663 5660 5659 5658 5656 5654 5653 5651 5648 5645 5643 5641 5642 5639 5638 5636 5634 5632 5630 5627 5623 5622 5619 5619 5620 5620 5616 5618 5617 5620 5622 5621 5620 5620